OneWeb SL0409

operational
NORAD ID: 50488 Int'l Des: 2021-132 Owner: ONEWEBN Country: UK Constellation: oneweb
LEOCIRCULARPOLARONEWEB_TYPE

Über OneWeb SL0409

Beschreibung wird geladen...

Live-Position

3D-Globus wird geladen...

Nächste Überflüge

Höhenverlauf

Altitude vs Time

uPlot chart will show altitude changes over time

Zweizeiliger Elementsatz

1 50488U 21132V 25296.80982819 .00000372 00000-0 10130-2 0 9992
2 50488 87.8845 68.1086 0001728 87.7793 272.3532 13.11417686184606
Epoch: 23. Okt. 2025 • Age: 19 hours

Aktueller Status

Höhe 1229.0 km
Geschwindigkeit 7.25 km/s
Subsatellitenpunkt 72.16°N, 6.26°W
Startdatum 27. Dez. 2021
Alter 3.8 years
Typ internet

Technische Details

Klassifizierung Payload
Masse 148.00 kg
Trockenmasse 140.00 kg
Gesamtmasse 148.00 kg
Länge 1.30 m
Durchmesser 1.00 m
Spannweite 5.00 m
Form Trapezoid+2 pan
Hersteller ONEWUS
Bus-Typ ARROW
Phasenstatus In Orbit
Besitzer/Staat ONEWEBN/UK

Große Konstellationen

Loading constellations...